Showing default

IRIDE-MS1-EAG2-15, 68462

Orbit data source: Space-Track

IRIDE-MS1-EAG2-15, 68462 is an Italian payload satellite in SSO that was launched on Mon, 30 Mar 2026 UTC via an FALCON 9 launch vehicle from the Air Force Western Test Range (AFWTR). Payload-class satellites include a variety of spacecraft equipped with specific instruments for various scientific and technological missions. These include communications satellites like Starlink; space stations such as the ISS; scientific satellites like the Hubble; Earth observation satellites from companies like Planet Labs, Umbra, and HawkEye 360; GPS; miniature CubeSats for education and research; and military/defense satellites.

Loading next visibility...
Identifier
68462, 2026-067AY
Orbit
SSO
Country
Flag of ITIT
Related business
Manufacturer
OHB-I
Mission
Operational Commercial Technology
Bus & Motor
EAGLET, Unknown motor
Mass
25 kg wet, 25 kg dry
Launch date (UTC)
2026-03-30 (5 months ago)
Launch vehicle
FALCON 9
Launch site
Air Force Western Test Range (AFWTR)
Object type
Payload
Rocket body
Debris
Shape & HBR
Box + 2 Pan, 1.0 m
Radar Cross Section
0.368 m², Medium (>0.1 m² and < 1m²)

Expand to show TLE details & history
Last TLE update: 9 hours ago

TLE from 9 hours ago
0 IRIDE-MS1-EAG2-15
1 68462U 26067AY  26255.86638988  .00005244  00000-0  24897-3 0  9991
2 68462  97.4644 213.2702 0004917  84.9904 275.1892 15.19668513 25257
Epoch: 2026-09-12T20:47Z
TLE epoch observation values (Epoch: 2026-09-12T20:47:36.085Z)
Latitude
-0.00003°
Longitude
-90.4994°
Altitude
509.625 km
Speed
7.609 km/s
True Right ascension
14h 13m 04s
True Declination
0° 00' 00"
Sunlit
Object was in daylight at epoch
Visualization orbit readout
Latitude
Unknown
Longitude
Unknown
Altitude
Unknown
Speed
Unknown
Apparent Right ascension
Unknown
Apparent Declination
Unknown
Sunlit
N/A
Visualization observer readout
Local Sidereal Time
22:14:09
Azimuth
Unknown
Elevation
Unknown
Doppler factor
Unknown
Orbital elements
Apogee altitude
507.194 km
Perigee altitude
500.427 km
Semi-major axis
6,881.947 km
Eccentricity
0.00049
Inclination
97.4644°
RAAN
213.2702°
Arg. of periapsis
84.9904°
True anomaly
275.13308°
Mean anomaly
275.1892°
Eccentric anomaly
275.16114°
Mean motion
3.80169 °/min
Orbital period
94.69 mins
BSTAR
0.00024897
Loading maneuver chart data...
Computing Atmospheric mass density...
Loading historical data...
Loading historical data...
Loading historical data...
Loading historical data...
Loading historical data...
Loading historical data...
Loading historical data...

Documentation

Showing up to 5 results
|